Location: Bretagne
(43.8474°N, 0.4650°W)
Time: 06:50:05
(UTC+00:00)

Helios 1A Rocket - Pass Details

Date: 15 January 2026
Orbit: 426 x 436 km, 98.3° (Epoch: 10 February)

Event Time Altitude Azimuth Distance (km) Brightness Sun altitude
Exits shadow 18:52:14 20° 177° (S) 1,073 4.3 -21.6°
Drops below altitude 10° 18:53:22 10° 182° (S) 1,531 5.2 -21.8°
Sets 18:55:22 0° 186° (S) 2,390 6.3 -22.1°
